Location: Newark
(12.4436°N, 0.6167°W)
Time: 05:21:12
(UTC+00:00)

deb Explorer IX - Pass Details

Date: 10 December 2019
Orbit: 548 x 1101 km, 38.8° (Epoch: 24 January)

Event Time Altitude Azimuth Distance (km) Brightness Sun altitude
Rises 16:14:43 0° 290° (WNW) 3,194 ? 17.3°
Reaches altitude 10° 16:19:51 10° 332° (NNW) 2,451 ? 16.2°
Maximum altitude 16:20:42 10° 340° (NNW) 2,459 ? 16.1°
Drops below altitude 10° 16:21:34 10° 349° (NNW) 2,509 ? 15.9°
Sets 16:27:21 0° 29° (NNE) 3,636 ? 14.6°
